Total_Precipitation_Accumulation
0.19 0.21 0.29 0.43 0.40 0.27 0.11 0.03 0.02 0.03 0.04 0.05 0.06 0.08 0.07 0.07 0.11 0.23 0.21 0.16 0.15 0.17 0.26 0.48 0.71 0.85 0.84 0.78 0.68 0.60 0.56 0.52 0.52 0.56 0.58 0.57 0.52 0.50 0.52 0.55 0.56 0.62 0.66 0.69 0.74 0.69 0.65 0.57 0.46
0.22 0.32 0.51 0.60 0.45 0.27 0.11 0.03 0.02 0.03 0.04 0.05 0.07 0.08 0.08 0.09 0.10 0.16 0.24 0.23 0.20 0.23 0.31 0.48 0.72 0.92 0.92 0.87 0.79 0.73 0.76 0.71 0.66 0.69 0.71 0.70 0.68 0.64 0.63 0.64 0.64 0.65 0.63 0.62 0.61 0.52 0.47 0.37 0.32
0.36 0.51 0.70 0.67 0.48 0.27 0.11 0.04 0.04 0.05 0.05 0.07 0.08 0.09 0.11 0.14 0.14 0.18 0.27 0.33 0.34 0.36 0.44 0.62 0.82 0.99 1.03 0.93 0.93 0.88 0.92 0.91 0.86 0.81 0.82 0.85 0.81 0.75 0.69 0.66 0.67 0.63 0.58 0.52 0.49 0.40 0.30 0.25 0.23
0.60 0.77 0.80 0.67 0.47 0.23 0.10 0.06 0.07 0.07 0.07 0.08 0.11 0.17 0.18 0.16 0.20 0.24 0.35 0.43 0.46 0.50 0.58 0.78 0.96 1.09 1.12 1.02 0.99 1.00 1.03 1.06 1.04 0.93 0.89 0.92 0.92 0.82 0.70 0.66 0.62 0.54 0.51 0.47 0.40 0.33 0.26 0.22 0.22
0.87 0.99 0.82 0.63 0.41 0.21 0.10 0.09 0.10 0.11 0.11 0.12 0.15 0.21 0.25 0.23 0.25 0.37 0.53 0.61 0.63 0.71 0.79 0.94 1.16 1.35 1.37 1.26 1.19 1.15 1.13 1.14 1.16 1.06 0.96 0.98 1.02 1.01 0.82 0.67 0.56 0.48 0.45 0.41 0.37 0.30 0.26 0.23 0.22
1.13 1.13 0.87 0.55 0.33 0.21 0.11 0.10 0.11 0.14 0.14 0.16 0.22 0.27 0.37 0.35 0.38 0.48 0.69 0.80 0.83 0.91 0.99 1.17 1.41 1.52 1.60 1.51 1.39 1.36 1.31 1.23 1.20 1.20 1.14 1.09 1.11 1.13 0.94 0.69 0.57 0.53 0.47 0.41 0.38 0.35 0.28 0.25 0.24
1.13 1.14 0.83 0.43 0.28 0.24 0.13 0.12 0.15 0.16 0.16 0.19 0.25 0.35 0.48 0.53 0.63 0.68 0.86 1.04 1.12 1.19 1.31 1.39 1.53 1.65 1.81 1.65 1.46 1.44 1.44 1.37 1.30 1.28 1.22 1.13 1.12 1.08 0.92 0.70 0.60 0.58 0.52 0.45 0.40 0.40 0.35 0.29 0.27
1.13 1.23 0.83 0.42 0.26 0.27 0.19 0.16 0.18 0.20 0.21 0.21 0.31 0.43 0.53 0.64 0.80 0.96 1.13 1.25 1.43 1.51 1.63 1.63 1.64 1.72 1.90 1.85 1.58 1.41 1.33 1.33 1.36 1.30 1.12 0.92 0.91 0.95 0.88 0.64 0.57 0.58 0.53 0.46 0.43 0.41 0.40 0.33 0.25
1.16 1.23 0.80 0.44 0.33 0.29 0.25 0.26 0.24 0.23 0.31 0.34 0.40 0.48 0.60 0.77 1.04 1.29 1.46 1.56 1.73 1.88 1.92 1.93 1.85 1.80 1.88 1.91 1.68 1.57 1.43 1.36 1.35 1.30 1.07 0.90 0.92 0.91 0.82 0.60 0.45 0.51 0.50 0.47 0.47 0.48 0.44 0.35 0.26
1.20 1.00 0.59 0.40 0.36 0.35 0.30 0.32 0.33 0.38 0.44 0.50 0.59 0.68 0.82 1.09 1.42 1.58 1.66 1.71 1.82 1.99 2.07 2.14 2.03 1.99 2.01 2.00 1.87 1.83 1.66 1.51 1.41 1.29 1.16 1.05 0.97 0.97 0.85 0.71 0.49 0.47 0.48 0.49 0.52 0.50 0.50 0.40 0.29
0.87 0.73 0.51 0.41 0.38 0.39 0.39 0.37 0.39 0.47 0.52 0.50 0.60 0.80 1.09 1.42 1.76 1.80 1.94 2.04 2.02 2.17 2.26 2.34 2.23 2.22 2.18 2.11 1.96 1.86 1.71 1.62 1.57 1.49 1.28 1.20 1.15 1.05 1.04 0.90 0.75 0.65 0.52 0.53 0.51 0.52 0.46 0.39 0.32
0.63 0.51 0.47 0.45 0.40 0.43 0.45 0.46 0.49 0.49 0.49 0.50 0.59 0.78 1.15 1.53 1.79 1.86 2.07 2.22 2.33 2.43 2.56 2.56 2.50 2.47 2.41 2.29 2.09 1.86 1.67 1.56 1.52 1.49 1.46 1.36 1.28 1.15 1.05 0.95 0.81 0.73 0.59 0.55 0.51 0.46 0.41 0.37 0.38
0.51 0.42 0.42 0.48 0.49 0.46 0.45 0.45 0.54 0.47 0.47 0.54 0.65 0.90 1.19 1.56 1.90 2.05 2.28 2.42 2.54 2.69 2.76 2.83 2.76 2.64 2.48 2.43 2.31 1.96 1.70 1.48 1.44 1.47 1.46 1.42 1.29 1.15 1.08 0.99 0.94 0.83 0.69 0.61 0.58 0.52 0.45 0.40 0.40
0.42 0.40 0.48 0.55 0.60 0.51 0.50 0.50 0.54 0.52 0.50 0.62 0.76 0.95 1.17 1.53 2.01 2.23 2.51 2.72 2.66 2.88 3.00 3.12 3.02 2.84 2.55 2.37 2.34 2.12 1.83 1.60 1.50 1.42 1.40 1.46 1.41 1.30 1.24 1.05 1.00 0.94 0.85 0.78 0.71 0.64 0.59 0.53 0.49
0.47 0.56 0.61 0.65 0.67 0.55 0.58 0.67 0.58 0.53 0.50 0.60 0.74 0.95 1.15 1.46 1.89 2.20 2.46 2.63 2.80 2.97 3.18 3.28 3.29 3.12 2.76 2.47 2.39 2.22 2.02 1.83 1.65 1.39 1.31 1.35 1.44 1.51 1.51 1.25 1.11 1.02 0.97 0.97 0.91 0.83 0.79 0.69 0.59
0.75 0.88 0.82 0.59 0.64 0.61 0.71 0.76 0.52 0.50 0.55 0.56 0.65 0.86 1.05 1.26 1.63 1.97 2.34 2.56 2.76 3.04 3.21 3.30 3.34 3.29 3.05 2.70 2.54 2.39 2.13 2.00 1.85 1.62 1.45 1.35 1.39 1.55 1.68 1.44 1.25 1.14 1.10 1.06 0.98 0.89 0.84 0.75 0.67
1.05 0.86 0.66 0.50 0.52 0.64 0.65 0.68 0.55 0.50 0.56 0.53 0.55 0.72 0.98 1.16 1.37 1.64 2.03 2.39 2.56 2.89 3.13 3.39 3.37 3.30 3.21 3.03 2.87 2.72 2.45 2.22 2.03 1.77 1.57 1.53 1.51 1.57 1.74 1.50 1.31 1.27 1.21 1.10 1.07 1.00 0.92 0.81 0.73
0.83 0.53 0.45 0.47 0.49 0.57 0.53 0.47 0.51 0.55 0.57 0.53 0.56 0.64 0.84 1.08 1.14 1.36 1.70 2.16 2.38 2.70 3.00 3.20 3.49 3.48 3.51 3.46 3.28 3.08 2.90 2.56 2.29 1.96 1.69 1.62 1.60 1.59 1.74 1.66 1.44 1.42 1.36 1.20 1.09 1.06 1.08 1.04 0.93
0.66 0.53 0.42 0.35 0.39 0.53 0.48 0.40 0.45 0.48 0.55 0.55 0.56 0.60 0.67 0.86 1.02 1.24 1.56 1.94 2.25 2.45 2.77 2.92 3.16 3.42 3.48 3.41 3.13 2.93 2.79 2.73 2.55 2.22 1.94 1.87 1.78 1.65 1.70 1.77 1.64 1.49 1.43 1.33 1.21 1.14 1.11 1.14 1.20
0.82 0.75 0.52 0.38 0.33 0.49 0.50 0.43 0.44 0.47 0.52 0.54 0.57 0.56 0.59 0.68 0.86 1.08 1.46 1.68 1.90 2.15 2.35 2.67 2.78 3.10 3.18 3.06 3.03 2.92 2.91 2.87 2.75 2.58 2.27 2.09 2.01 1.85 1.75 1.74 1.72 1.59 1.48 1.47 1.47 1.36 1.27 1.19 1.21
0.87 0.73 0.60 0.55 0.47 0.55 0.63 0.60 0.46 0.45 0.43 0.41 0.44 0.43 0.50 0.56 0.66 0.85 1.18 1.49 1.63 1.89 2.17 2.30 2.46 2.72 3.01 3.05 3.21 3.31 3.29 3.09 2.84 2.68 2.60 2.36 2.23 2.11 1.91 1.80 1.80 1.75 1.58 1.44 1.49 1.53 1.49 1.46 1.44
0.91 0.55 0.59 0.64 0.83 0.82 0.66 0.83 0.55 0.43 0.38 0.37 0.40 0.37 0.42 0.50 0.58 0.70 0.82 1.09 1.32 1.53 1.93 2.24 2.45 2.62 2.82 3.14 3.14 3.03 2.90 2.73 2.49 2.50 2.61 2.59 2.46 2.33 2.11 2.01 1.98 1.88 1.75 1.60 1.56 1.58 1.64 1.68 1.64
0.81 0.56 0.64 0.74 0.91 0.92 0.63 0.71 0.56 0.37 0.37 0.38 0.40 0.40 0.48 0.59 0.64 0.67 0.71 0.86 1.05 1.26 1.64 2.01 2.27 2.59 2.82 2.94 2.95 2.99 2.78 2.59 2.56 2.53 2.57 2.52 2.43 2.39 2.28 2.15 2.18 2.07 1.91 1.84 1.83 1.77 1.78 1.80 1.76
0.88 0.91 0.99 1.06 1.39 1.40 0.59 0.58 0.57 0.45 0.45 0.44 0.43 0.45 0.53 0.62 0.67 0.66 0.70 0.81 0.97 1.10 1.33 1.72 1.99 2.15 2.45 2.74 2.76 2.76 2.74 2.69 2.65 2.48 2.41 2.48 2.46 2.41 2.31 2.30 2.27 2.22 2.14 2.01 1.97 1.94 1.96 1.96 1.91
1.32 1.85 2.46 2.41 2.07 1.12 0.41 0.46 0.53 0.46 0.48 0.52 0.54 0.56 0.58 0.59 0.60 0.62 0.69 0.80 0.95 1.08 1.20 1.38 1.62 1.76 1.95 2.22 2.39 2.41 2.51 2.59 2.52 2.40 2.21 2.20 2.24 2.26 2.22 2.16 2.21 2.25 2.21 2.17 2.13 2.10 2.04 2.05 2.05
1.35 1.59 1.89 1.57 0.98 0.57 0.38 0.45 0.50 0.46 0.49 0.52 0.55 0.56 0.54 0.58 0.61 0.60 0.61 0.70 0.82 0.96 1.11 1.19 1.33 1.48 1.66 1.83 1.97 2.15 2.29 2.45 2.45 2.40 2.18 2.02 1.99 2.02 2.20 2.15 2.01 2.04 2.12 2.16 2.13 2.09 2.02 2.00 1.96
1.24 1.22 1.07 1.33 0.84 0.56 0.45 0.40 0.38 0.35 0.36 0.43 0.48 0.47 0.51 0.59 0.62 0.59 0.57 0.61 0.72 0.83 0.97 1.06 1.19 1.31 1.41 1.57 1.72 1.88 2.00 2.11 2.18 2.24 2.21 2.07 1.97 1.94 1.95 1.95 1.89 1.80 1.83 1.95 2.04 1.98 1.92 1.91 1.89
1.02 1.01 1.25 1.74 1.39 0.82 0.47 0.34 0.46 0.44 0.42 0.45 0.48 0.52 0.58 0.62 0.59 0.55 0.56 0.63 0.71 0.72 0.82 0.97 1.12 1.19 1.22 1.32 1.45 1.56 1.69 1.87 1.98 2.01 1.99 1.95 1.93 1.91 1.86 1.74 1.66 1.61 1.61 1.68 1.79 1.79 1.75 1.75 1.72
0.99 1.23 1.43 1.42 1.12 0.98 0.71 0.59 0.58 0.53 0.48 0.48 0.50 0.54 0.61 0.62 0.61 0.61 0.62 0.70 0.80 0.75 0.78 0.89 1.03 1.18 1.21 1.23 1.31 1.35 1.36 1.45 1.65 1.78 1.82 1.81 1.84 1.86 1.81 1.69 1.60 1.53 1.46 1.45 1.51 1.51 1.57 1.61 1.59
0.86 0.94 1.17 1.54 1.14 0.82 0.79 0.78 0.59 0.53 0.48 0.45 0.48 0.51 0.55 0.56 0.57 0.63 0.69 0.69 0.73 0.80 0.84 0.87 0.93 1.11 1.21 1.24 1.27 1.31 1.31 1.27 1.35 1.48 1.61 1.70 1.78 1.76 1.79 1.73 1.61 1.50 1.43 1.37 1.36 1.35 1.37 1.41 1.44